Погода в Хангиш-Юрте

Россия / Чеченская Республика     43°24′46″N   46°14′12″E
темп.,
°C
ветер,
м/с
пор.,
м/с
влажн.,
%
обл.,
%
осадки,
мм/ч
давл.,
гПа
погр.,
м
25 января, пн
пн2500:00+1юв017986 0.0 102022
03:00+1зсз118290 0.0 101922
06:00+1з2387100 0.0 102022
09:00+2з227898 0.0 1021100
12:00+5в2262100 0.0 1020344
15:00+8в345387 0.0 1018523
18:00+4в47790 0.0 1020173
21:00+3в23900 0.0 101942
26 января, вт
вт2600:00+2вюв12920 0.0 101822
03:00+1в01870 0.0 101722
06:000з118868 0.0 101822
09:00+3юз117884 0.0 101938
12:00+6зсз1160100 0.0 1019288
15:00+8зсз235486 0.0 1020540
18:00+5св116915 0.0 102222
21:00+4вюв237311 0.0 102122
27 января, ср
ср2700:00+2в337813 0.0 102143
03:00+2в37917 0.0 1020128
06:00+2в49940 0.0 1019189
09:00+4в510903 0.0 1018440
12:00+9в58632 0.0 1016641
15:00+10в57543 0.0 1013649
18:00+6в5108186 0.0 1013296
21:00+5в369193 0.0 1011172
28 января, чт
чт2800:00+3вюв129199 0.0 101023
03:00+3з2390100 0.0 100825
06:00+3з3491100 0.0 100775
09:00+4з4785100 0.0 1006246
12:00+9зсз355836 0.0 1005417
15:00+10зсз345323 0.0 1003525
18:00+7зсз23720 0.0 100432
21:00+6з338328 0.0 100450
29 января, пт
пт2900:00+4з488957 0.0 1006234
03:00+5з6118376 0.0 1007330
06:00+4з410843 0.0 1008227
09:00+7з477220 0.0 1010336
12:00+10зсз34633 0.0 1009644
15:00+11в226022 0.0 1009792
18:00+8всв347498 0.0 101170
21:00+7всв348187 0.0 101192